Flag for Germany Weather past 2 weeks in Kerpen, North Rhine-Westphalia, Germany

Now
57 °F

Cool.


Feels Like: 57 °F
Forecast: 62 / 90 °F
Wind: 5 mph from Southwest

Location: Noervenich

Current Time: Aug 2, 2015 at 4:41:52 AM

Latest Report: Aug 2, 2015 at 3:20 AM


Visibility: 4 mi

Pressure: 30.09 "Hg

Humidity: 72%

Dew point: 48 °F

Location of KerpenLocation

Historic Weather in Kerpen — Graph

°F

Kerpen temperature yesterday

Maximum temperature yesterday: 75 °F (at 3:20 PM)
Minimum temperature yesterday: 50 °F (at 4:20 AM)
Average temperature yesterday: 64 °F

Past Weeks' High & Low Weather Summary

 TemperatureHumidityPressure
High82 °F (Jul 21, 6:20 PM)100% (Jul 19, 4:20 AM)30.15 "Hg (Jul 19, 4:20 AM)
Low46 °F (Jul 31, 6:20 AM)32% (Jul 18, 5:20 PM)29.53 "Hg (Jul 25, 7:20 AM)
Average64 °F72%29.90 "Hg
* Reported Jul 18 3:20 AM — Aug 2 3:20 AM, Kerpen, Weather by CustomWeather, © 2015

Note: Actual official high and low records may vary slightly from our data, if they occured in-between our weather recording intervals... More about our weather records

Advertising

Kerpen weather history for previous 24 hours

 ConditionsComfort  
Time TempWeatherWind HumidityBarometerVisibility
3:20 AM
Sun, Aug 2
57 °FCool.5 mph72%30.09 "Hg4 mi
2:20 AM57 °FCool.6 mph77%30.09 "Hg4 mi
1:20 AM59 °FCool.5 mph68%30.07 "Hg4 mi
12:20 AM61 °FCool.3 mph63%30.07 "Hg4 mi
11:20 PM
Sat, Aug 1
63 °FMild.3 mph59%30.07 "Hg4 mi
10:20 PM66 °FMild.6 mph52%30.04 "Hg4 mi
9:20 PM68 °FMild.3 mph49%30.01 "Hg4 mi
8:20 PM72 °FMild.3 mph47%30.01 "Hg4 mi
7:20 PM75 °FMild.7 mph39%29.98 "Hg4 mi
6:20 PM75 °FMild.6 mph39%29.98 "Hg4 mi
5:20 PM75 °FMild.2 mph39%29.98 "Hg4 mi
4:20 PM75 °FMild.2 mph36%29.98 "Hg4 mi
3:20 PM75 °FMild.3 mph39%29.98 "Hg4 mi
2:20 PM73 °FMild.3 mph41%29.95 "Hg4 mi
1:20 PM72 °FMild.3 mph41%29.98 "Hg4 mi
12:20 PM70 °FMild.3 mph46%29.98 "Hg5 mi
11:20 AM68 °FPartly sunny.1 mph46%29.98 "HgN/A
10:20 AM64 °FScattered clouds.2 mph56%29.98 "HgN/A
9:20 AM61 °FScattered clouds.2 mph59%29.98 "HgN/A
8:20 AM57 °FScattered clouds.No wind72%29.98 "HgN/A
7:20 AM52 °FPartly sunny.No wind88%29.98 "HgN/A
6:20 AM50 °FPartly cloudy.1 mph88%29.98 "HgN/A
5:20 AM50 °FPartly cloudy.No wind88%29.98 "HgN/A
4:20 AM50 °FPassing clouds.1 mph88%29.98 "HgN/A
Weather by CustomWeather, © 2015

See weather overviewHow to use our weather pages